Location: Lombard
(41.8800°N, 88.0080°W)
Time: 10:28:20
(UTC-05:00)

Tiros 1 - Pass Details

Date: 13 February 2023
Orbit: 628 x 662 km, 48.4° (Epoch: 20 March)

Event Time Altitude Azimuth Distance (km) Brightness Sun altitude
Rises 19:31:03 0° 219° (SW) 2,907 11.0 -24.5°
Reaches altitude 10° 19:33:27 10° 212° (SSW) 1,999 10.0 -24.9°
Enters shadow 19:36:02 29° 190° (S) 1,158 8.4 -25.4°
